Temp
-6 -6 -6 -7 -7 -7 -7 -7 -7 -7 -7 -7 -7 -7 -7 -7 -7 -7 -7 -7 -7 -7 -7 -7 -7 -7 -6 -6 -6 -7 -6 -6 -6 -6 -6 -6 -6 -6 -6 -6 -6 -6 -6
-6 -7 -7 -7 -7 -7 -7 -7 -7 -7 -7 -7 -7 -7 -7 -7 -7 -7 -7 -7 -7 -7 -7 -7 -7 -7 -7 -7 -7 -6 -6 -6 -6 -6 -6 -6 -6 -6 -6 -6 -6 -6 -6
-7 -7 -7 -7 -7 -7 -7 -7 -7 -7 -7 -7 -7 -7 -7 -7 -7 -7 -7 -7 -7 -7 -7 -7 -7 -7 -7 -7 -7 -7 -7 -7 -6 -6 -6 -6 -6 -6 -6 -6 -6 -6 -6
-7 -7 -7 -7 -7 -7 -7 -7 -7 -7 -7 -7 -7 -7 -7 -7 -7 -7 -7 -7 -7 -7 -7 -7 -7 -7 -7 -7 -7 -7 -7 -7 -7 -7 -7 -7 -6 -6 -6 -6 -6 -6 -6
-8 -8 -8 -8 -8 -8 -8 -8 -8 -8 -7 -7 -7 -8 -8 -8 -7 -7 -7 -7 -7 -7 -7 -7 -7 -7 -7 -7 -7 -7 -7 -7 -7 -7 -7 -7 -7 -7 -7 -6 -6 -6 -6
-8 -8 -8 -8 -8 -8 -8 -8 -8 -8 -8 -8 -7 -7 -7 -7 -7 -7 -7 -7 -7 -7 -7 -8 -7 -7 -7 -7 -7 -7 -7 -7 -7 -7 -7 -7 -7 -7 -7 -7 -7 -7 -6
-8 -8 -8 -8 -8 -8 -8 -8 -8 -8 -8 -7 -7 -7 -7 -7 -7 -7 -7 -7 -7 -7 -7 -7 -7 -7 -8 -8 -8 -7 -7 -7 -7 -7 -7 -7 -7 -7 -7 -7 -7 -7 -7
-8 -8 -8 -8 -8 -8 -8 -8 -8 -8 -8 -7 -7 -7 -7 -7 -7 -7 -7 -7 -7 -7 -7 -7 -7 -7 -7 -7 -7 -7 -7 -8 -8 -7 -7 -7 -7 -7 -7 -7 -7 -7 -7
-8 -8 -8 -8 -8 -8 -8 -8 -8 -8 -8 -8 -7 -7 -7 -7 -7 -7 -7 -7 -7 -7 -7 -7 -7 -7 -7 -7 -8 -7 -7 -7 -7 -8 -8 -8 -8 -7 -7 -7 -7 -7 -7
-9 -9 -8 -8 -8 -8 -8 -8 -8 -8 -7 -7 -7 -7 -7 -7 -7 -7 -7 -7 -7 -7 -7 -8 -8 -8 -8 -8 -8 -8 -8 -8 -8 -8 -8 -8 -8 -8 -8 -8 -8 -8 -8
-9 -9 -9 -9 -8 -9 -9 -8 -8 -8 -8 -8 -8 -8 -8 -8 -8 -8 -8 -8 -8 -8 -8 -8 -8 -8 -8 -8 -8 -8 -8 -8 -8 -8 -8 -8 -8 -8 -8 -8 -8 -8 -8
-9 -9 -9 -9 -9 -9 -9 -8 -8 -8 -8 -8 -8 -8 -8 -8 -9 -9 -9 -9 -9 -9 -8 -9 -9 -9 -9 -9 -8 -8 -8 -8 -8 -8 -8 -8 -9 -9 -9 -9 -9 -9 -9
-9 -9 -9 -9 -9 -9 -9 -9 -9 -9 -9 -9 -9 -9 -9 -9 -9 -9 -9 -9 -9 -9 -9 -9 -9 -9 -9 -9 -9 -9 -9 -9 -9 -9 -9 -9 -9 -9 -9 -9 -9 -9 -9
-9 -9 -9 -9 -9 -9 -9 -9 -9 -9 -9 -9 -9 -9 -9 -9 -9 -9 -9 -9 -9 -9 -9 -9 -9 -9 -9 -9 -9 -9 -9 -9 -9 -9 -9 -9 -9 -9 -9 -9 -10 -10 -10
-9 -9 -9 -9 -9 -9 -10 -10 -10 -10 -10 -9 -9 -9 -9 -9 -9 -9 -9 -9 -9 -9 -9 -9 -9 -9 -9 -9 -9 -9 -9 -9 -9 -9 -9 -10 -10 -9 -9 -9 -9 -10 -10
-9 -9 -9 -10 -10 -10 -10 -10 -10 -10 -10 -10 -9 -9 -9 -9 -9 -9 -9 -9 -9 -9 -9 -9 -9 -9 -9 -9 -9 -9 -9 -9 -9 -9 -9 -10 -10 -10 -10 -10 -10 -10 -10
-9 -10 -10 -10 -10 -10 -10 -10 -10 -10 -10 -10 -9 -10 -9 -9 -9 -9 -9 -9 -9 -9 -9 -9 -9 -9 -9 -9 -9 -9 -9 -9 -9 -9 -10 -10 -10 -10 -10 -10 -11 -10 -10
-10 -10 -10 -10 -10 -10 -10 -10 -10 -10 -10 -10 -10 -10 -10 -10 -10 -10 -10 -10 -10 -10 -10 -10 -10 -10 -9 -9 -10 -10 -10 -10 -10 -10 -10 -10 -11 -11 -11 -11 -11 -11 -11
-10 -10 -10 -10 -10 -10 -10 -10 -10 -10 -10 -10 -10 -10 -10 -10 -10 -10 -10 -10 -10 -10 -10 -10 -10 -10 -10 -10 -10 -11 -11 -11 -11 -11 -11 -11 -11 -11 -11 -11 -12 -11 -12
-10 -10 -10 -10 -10 -10 -10 -10 -10 -10 -10 -11 -11 -11 -11 -11 -11 -11 -11 -11 -11 -11 -11 -11 -11 -11 -11 -11 -12 -12 -12 -12 -12 -12 -12 -12 -12 -12 -12 -12 -12 -12 -12
-10 -10 -10 -10 -10 -10 -10 -10 -11 -11 -11 -11 -11 -11 -11 -11 -11 -12 -12 -11 -12 -11 -11 -11 -11 -10 -11 -11 -12 -12 -12 -12 -12 -12 -12 -13 -13 -12 -13 -13 -13 -13 -13
-10 -10 -10 -10 -11 -11 -11 -11 -11 -12 -12 -12 -11 -11 -12 -12 -12 -12 -12 -12 -12 -12 -11 -11 -10 -10 -11 -12 -13 -13 -13 -12 -12 -12 -12 -13 -13 -13 -13 -13 -13 -13 -13
-10 -11 -11 -11 -11 -11 -12 -12 -12 -12 -12 -12 -12 -12 -12 -12 -12 -12 -12 -12 -12 -12 -11 -11 -11 -11 -13 -14 -13 -13 -12 -12 -12 -13 -13 -13 -13 -13 -13 -13 -13 -13 -13
-11 -12 -12 -12 -12 -12 -12 -12 -12 -12 -12 -12 -12 -12 -12 -12 -12 -12 -12 -12 -12 -12 -12 -12 -11 -12 -14 -14 -14 -13 -13 -12 -12 -12 -14 -13 -13 -13 -13 -13 -13 -13 -13
-12 -12 -12 -12 -12 -12 -13 -13 -13 -13 -13 -13 -12 -12 -12 -12 -12 -12 -12 -12 -12 -12 -12 -12 -12 -12 -13 -14 -13 -13 -13 -13 -12 -12 -12 -14 -14 -14 -13 -13 -13 -13 -13
-12 -12 -12 -12 -13 -13 -13 -13 -13 -13 -13 -12 -12 -12 -12 -12 -12 -12 -12 -12 -12 -12 -12 -12 -13 -13 -13 -13 -14 -13 -13 -13 -13 -13 -13 -13 -14 -14 -14 -13 -13 -13 -13
Height
5898 5898 5899 5899 5900 5901 5901 5902 5902 5902 5902 5902 5901 5900 5900 5899 5899 5898 5898 5897 5897 5897 5896 5895 5895 5895 5894 5893 5893 5892 5891 5891 5890 5890 5889 5889 5889 5889 5889 5889 5888 5888 5888
5897 5898 5899 5899 5899 5900 5900 5901 5901 5901 5901 5901 5900 5899 5899 5897 5897 5896 5895 5895 5895 5895 5894 5894 5893 5893 5892 5891 5891 5890 5890 5889 5889 5889 5888 5888 5888 5887 5887 5887 5887 5887 5887
5896 5897 5898 5898 5898 5899 5899 5900 5900 5900 5900 5899 5899 5898 5897 5896 5895 5894 5893 5893 5892 5892 5892 5891 5891 5890 5890 5889 5888 5888 5887 5887 5887 5887 5886 5886 5885 5885 5885 5885 5885 5885 5885
5894 5896 5897 5897 5898 5898 5899 5899 5899 5899 5898 5897 5897 5896 5896 5895 5894 5893 5892 5891 5890 5889 5888 5888 5887 5887 5886 5886 5886 5885 5885 5884 5884 5883 5883 5883 5883 5883 5882 5882 5882 5882 5882
5893 5894 5895 5896 5896 5897 5897 5897 5897 5897 5896 5895 5895 5894 5893 5892 5892 5891 5890 5889 5888 5887 5886 5885 5884 5883 5882 5882 5881 5881 5881 5881 5880 5880 5880 5878 5879 5879 5879 5879 5879 5879 5878
5893 5894 5894 5895 5895 5895 5896 5895 5895 5895 5894 5893 5892 5891 5890 5889 5889 5888 5887 5886 5885 5884 5882 5881 5880 5879 5879 5878 5877 5876 5876 5875 5875 5876 5876 5875 5874 5875 5875 5875 5875 5875 5875
5892 5893 5893 5894 5894 5894 5894 5894 5893 5892 5891 5891 5889 5888 5887 5886 5885 5884 5883 5882 5881 5880 5878 5877 5876 5875 5875 5874 5873 5872 5871 5871 5870 5870 5870 5870 5869 5870 5869 5869 5870 5870 5870
5890 5891 5892 5892 5892 5892 5892 5891 5890 5889 5888 5887 5886 5884 5883 5881 5880 5879 5878 5876 5875 5874 5873 5872 5871 5870 5869 5869 5868 5867 5866 5866 5865 5865 5864 5864 5863 5864 5864 5864 5864 5864 5864
5888 5889 5889 5889 5889 5888 5888 5887 5886 5885 5884 5882 5881 5879 5878 5877 5875 5873 5872 5870 5869 5868 5867 5867 5866 5864 5863 5862 5862 5861 5860 5860 5859 5859 5858 5858 5857 5857 5857 5857 5857 5857 5857
5886 5886 5886 5886 5885 5884 5883 5882 5881 5879 5878 5876 5875 5873 5871 5870 5869 5867 5865 5864 5862 5861 5860 5859 5858 5858 5857 5857 5855 5854 5854 5853 5852 5852 5852 5851 5851 5851 5851 5850 5850 5850 5850
5883 5883 5883 5882 5881 5880 5879 5876 5875 5872 5871 5869 5867 5866 5864 5862 5861 5860 5858 5857 5855 5854 5853 5852 5851 5850 5849 5849 5847 5846 5847 5846 5845 5845 5845 5844 5844 5844 5844 5844 5843 5843 5843
5878 5878 5878 5877 5876 5874 5873 5870 5868 5866 5864 5862 5861 5859 5857 5856 5855 5853 5852 5851 5849 5847 5846 5845 5844 5843 5842 5841 5840 5839 5838 5838 5838 5837 5837 5836 5836 5836 5836 5836 5836 5835 5835
5873 5873 5872 5871 5869 5867 5866 5864 5862 5860 5858 5857 5856 5854 5853 5851 5849 5848 5847 5845 5844 5843 5841 5839 5838 5837 5836 5835 5834 5833 5831 5831 5830 5829 5829 5828 5827 5827 5826 5828 5827 5828 5827
5868 5868 5866 5865 5863 5861 5859 5858 5857 5855 5854 5852 5851 5849 5847 5845 5843 5841 5840 5839 5837 5836 5835 5833 5831 5830 5828 5827 5826 5825 5824 5823 5822 5821 5820 5819 5820 5819 5818 5817 5818 5817 5818
5863 5861 5860 5858 5857 5855 5854 5853 5852 5851 5849 5848 5846 5844 5842 5839 5837 5835 5833 5831 5829 5827 5826 5825 5823 5822 5821 5819 5817 5816 5815 5815 5813 5812 5811 5810 5810 5810 5810 5809 5809 5808 5808
5857 5856 5854 5853 5852 5850 5849 5848 5847 5846 5844 5842 5840 5838 5835 5833 5830 5828 5825 5822 5820 5818 5816 5814 5813 5811 5809 5807 5806 5804 5803 5803 5804 5803 5801 5800 5800 5798 5798 5798 5797 5798 5799
5852 5851 5849 5848 5847 5846 5844 5842 5841 5839 5837 5835 5832 5830 5827 5825 5822 5820 5817 5814 5811 5808 5806 5803 5801 5799 5798 5796 5794 5792 5790 5789 5789 5789 5789 5789 5788 5787 5787 5786 5786 5786 5786
5846 5844 5843 5842 5841 5839 5837 5835 5834 5832 5830 5827 5824 5821 5818 5815 5812 5809 5806 5802 5799 5797 5794 5791 5788 5786 5784 5782 5781 5779 5776 5775 5774 5774 5774 5773 5773 5773 5773 5773 5772 5773 5773
5839 5837 5836 5835 5833 5832 5830 5828 5825 5823 5820 5818 5814 5811 5808 5805 5801 5798 5794 5790 5787 5784 5781 5778 5774 5772 5769 5766 5765 5764 5762 5761 5759 5758 5758 5757 5757 5757 5758 5759 5758 5758 5758
5832 5831 5829 5828 5826 5824 5821 5819 5816 5813 5810 5807 5804 5800 5797 5794 5790 5787 5783 5780 5777 5773 5770 5766 5763 5759 5755 5754 5751 5750 5748 5747 5746 5744 5743 5741 5740 5741 5743 5743 5744 5744 5744
5827 5824 5822 5820 5817 5815 5812 5809 5806 5803 5801 5797 5794 5790 5787 5783 5780 5778 5775 5771 5768 5764 5760 5756 5751 5747 5741 5740 5739 5738 5737 5736 5734 5733 5731 5729 5727 5728 5728 5726 5727 5727 5728
5818 5816 5814 5812 5809 5806 5803 5800 5797 5793 5790 5787 5784 5781 5778 5776 5773 5771 5768 5765 5760 5755 5751 5746 5741 5734 5727 5725 5725 5726 5726 5724 5724 5721 5719 5718 5717 5715 5714 5711 5711 5713 5715
5810 5808 5805 5803 5800 5796 5793 5790 5787 5784 5781 5778 5775 5773 5771 5769 5767 5764 5760 5755 5751 5746 5741 5736 5731 5724 5715 5712 5712 5714 5715 5715 5713 5709 5707 5705 5705 5703 5702 5700 5698 5698 5699
5801 5799 5796 5794 5791 5787 5785 5781 5778 5775 5773 5771 5768 5766 5765 5762 5759 5755 5751 5746 5742 5737 5732 5727 5721 5715 5710 5705 5703 5704 5704 5704 5703 5702 5697 5694 5693 5691 5689 5686 5687 5686 5686
5791 5789 5786 5784 5782 5778 5775 5773 5770 5768 5766 5764 5762 5760 5758 5755 5751 5747 5743 5738 5733 5729 5724 5719 5714 5708 5704 5700 5697 5695 5694 5693 5692 5692 5691 5687 5683 5679 5676 5676 5675 5674 5674
5781 5779 5778 5776 5773 5770 5768 5766 5763 5761 5760 5758 5755 5753 5750 5747 5743 5738 5734 5730 5726 5722 5717 5712 5707 5702 5698 5695 5692 5689 5687 5684 5682 5681 5680 5679 5675 5670 5668 5666 5664 5663 5662
Wind_Speed
3 3 2 1 2 2 2 3 3 5 5 6 7 8 11 12 12 12 12 12 12 11 11 11 12 12 11 10 10 9 9 10 10 11 12 10 9 9 9 8 7 6 6
6 4 2 2 2 2 3 4 5 5 6 7 7 7 7 7 11 13 14 15 15 14 14 14 13 12 14 15 13 12 11 11 10 11 11 12 12 11 11 11 11 11 10
7 6 5 4 4 4 5 6 7 8 8 8 8 8 9 10 10 9 8 10 15 18 18 17 17 17 16 15 15 16 16 14 13 12 12 12 12 13 14 14 15 14 14
8 7 6 5 5 5 6 7 7 8 9 10 11 11 11 11 11 12 13 13 12 12 13 16 21 21 21 20 19 18 17 17 17 16 15 15 14 14 14 16 17 17 17
8 7 7 6 6 7 8 8 9 9 10 12 14 15 15 15 14 15 15 14 15 15 16 16 17 17 21 24 24 23 22 22 20 19 17 19 18 18 18 17 17 18 19
8 8 7 7 8 9 10 11 12 13 14 15 17 18 19 19 19 19 19 18 18 17 18 18 18 19 19 19 20 24 26 26 25 25 23 22 22 21 21 22 21 21 22
9 8 8 9 10 12 13 15 16 17 18 20 21 22 23 24 24 25 25 24 23 22 21 22 22 22 21 20 20 21 23 24 25 27 27 27 28 26 25 25 24 25 25
11 11 11 12 14 15 17 18 20 21 22 23 25 26 26 27 28 30 30 31 30 30 28 27 27 27 27 26 26 25 25 25 25 25 26 26 27 29 30 30 29 28 27
12 13 14 16 16 18 20 22 24 26 27 27 28 30 30 31 31 33 33 34 34 34 33 32 32 31 31 32 32 31 30 29 30 28 27 27 28 28 29 29 31 33 32
15 16 18 19 20 23 26 28 30 32 32 32 33 34 34 35 35 35 35 35 36 36 36 36 36 35 35 35 36 36 35 34 34 32 32 32 31 30 29 30 30 30 32
17 19 20 22 24 28 33 37 37 37 37 37 37 36 37 36 35 35 35 36 36 35 34 33 34 34 35 35 37 39 38 38 39 38 37 36 35 35 34 34 33 32 32
21 22 24 26 30 36 39 39 38 37 36 34 33 31 30 29 29 28 27 26 27 28 27 27 27 27 27 27 28 30 31 33 35 39 40 41 40 40 38 37 37 37 36
24 26 28 34 38 39 38 37 33 30 28 28 27 25 25 25 25 26 27 28 28 29 31 31 31 31 31 31 31 31 32 31 31 32 33 35 38 40 41 40 40 39 39
30 33 36 38 38 35 32 29 27 25 25 26 27 28 28 30 31 32 33 34 34 35 34 35 35 35 35 34 35 35 35 37 37 36 36 35 34 35 36 37 37 40 41
33 35 37 38 35 28 25 25 25 26 28 30 31 32 32 33 34 35 37 38 39 40 40 40 41 41 41 42 43 42 41 40 42 42 41 41 41 41 39 39 39 38 38
37 38 38 34 29 25 26 27 29 30 31 32 33 34 34 35 36 37 38 39 40 41 43 44 44 45 46 47 48 49 49 48 45 45 46 47 46 45 46 45 45 44 42
40 41 35 29 26 27 28 29 32 34 35 36 37 37 38 39 40 41 42 43 44 46 47 49 50 51 51 52 53 53 54 54 54 52 51 51 52 52 52 49 48 49 50
41 37 33 30 29 30 32 34 36 38 38 39 40 42 43 45 46 47 48 48 50 51 53 54 56 57 58 58 58 58 59 58 57 56 56 56 57 57 56 56 55 54 53
36 33 32 32 33 35 38 40 41 42 44 45 46 47 48 48 48 50 52 53 53 53 53 52 52 53 54 55 56 55 55 58 60 60 59 58 58 59 60 60 60 60 59
34 33 34 35 37 40 41 43 45 47 48 49 48 47 48 49 49 49 46 42 40 41 43 45 46 49 51 49 47 44 41 40 45 52 58 61 61 61 60 59 59 60 61
33 35 37 39 42 43 45 48 49 49 49 48 47 45 45 44 39 35 35 35 35 39 42 44 46 47 52 55 49 44 40 41 41 41 43 44 48 54 61 63 61 60 59
39 40 42 44 46 47 48 49 49 47 44 44 43 39 33 32 31 29 31 35 38 39 40 41 42 46 49 49 50 45 45 44 41 42 43 44 45 44 45 52 62 64 60
43 45 46 47 48 49 48 44 42 42 39 36 30 30 28 25 30 32 36 38 38 39 40 41 41 41 38 38 41 41 40 39 41 44 44 43 43 46 46 45 45 54 61
47 48 49 47 43 41 42 40 38 36 29 29 30 25 28 31 35 38 41 42 40 40 39 38 37 35 31 35 35 35 36 36 37 37 41 43 43 43 44 45 45 46 49
43 40 39 40 40 39 38 34 25 27 30 27 26 29 32 37 41 42 41 39 37 38 37 37 35 33 30 30 30 33 36 35 35 34 35 38 43 45 47 45 46 46 47
41 40 38 37 36 32 24 25 28 29 23 25 29 34 38 42 39 37 34 33 34 35 36 36 35 32 29 29 29 29 29 29 31 33 34 35 37 39 42 45 48 49 50
Wind_Direction
239 218 225 350 20 13 358 339 318 307 311 318 312 293 282 280 281 284 288 290 291 295 300 294 280 279 283 286 288 292 299 303 305 294 285 275 270 269 266 263 258 252 244
227 218 239 266 301 331 329 316 314 316 315 314 312 318 324 307 287 281 279 280 280 280 280 283 287 285 274 273 275 277 279 284 292 297 300 291 278 269 264 262 258 258 255
209 217 232 258 276 293 302 309 313 320 319 317 315 313 311 309 307 309 313 299 282 278 276 274 275 277 279 278 275 272 271 272 275 280 285 290 286 278 271 264 260 256 256
221 226 236 248 263 274 283 290 295 304 309 314 315 313 312 310 310 304 303 300 298 296 295 285 275 273 273 274 275 275 275 273 268 264 268 270 276 277 273 268 266 264 262
225 229 233 244 255 266 274 280 287 289 293 297 300 301 302 302 301 303 305 305 300 296 296 295 291 285 275 272 273 274 274 274 274 273 270 267 264 264 267 268 268 266 263
229 239 245 252 263 270 275 280 285 289 291 293 295 296 295 297 298 296 293 292 291 290 291 286 285 284 281 278 276 274 271 272 273 273 272 272 270 268 266 266 265 265 264
235 243 255 265 274 283 288 292 292 293 293 294 292 291 293 294 294 293 290 287 283 280 278 278 279 278 275 276 276 275 274 272 269 269 269 268 269 268 267 266 265 265 267
244 255 264 274 282 290 296 298 297 295 294 294 293 292 291 291 291 290 288 286 283 280 277 273 271 271 272 273 273 273 272 272 272 270 268 267 267 266 266 265 265 264 264
258 269 276 280 286 289 295 302 302 298 297 293 291 292 290 289 287 287 285 284 283 281 279 276 272 270 270 270 269 268 267 267 268 269 270 269 269 268 268 267 266 264 262
267 275 281 287 290 296 299 299 300 299 296 294 293 291 288 287 284 284 282 282 281 279 279 277 274 272 271 271 271 270 268 267 267 266 267 268 268 268 268 267 266 266 267
277 283 284 289 293 298 303 304 301 298 294 291 289 290 289 289 289 287 286 284 283 282 281 280 278 277 276 274 273 274 273 271 270 269 269 270 269 269 267 265 266 266 266
289 294 293 296 300 306 305 302 298 295 293 292 290 291 292 293 291 290 288 285 285 285 284 281 280 279 279 279 279 278 278 276 275 274 273 272 271 271 271 271 269 267 266
290 294 296 300 302 303 303 299 296 293 294 294 295 294 294 293 291 290 287 286 284 283 284 284 282 280 279 280 280 280 281 281 280 279 277 274 272 271 271 270 272 273 272
291 292 297 300 302 302 298 295 296 298 299 299 299 299 298 297 295 292 289 288 287 285 284 283 282 282 282 280 279 279 280 282 281 279 278 276 276 276 275 274 271 270 269
292 297 302 304 302 295 291 292 295 298 300 300 300 299 297 294 293 293 292 291 289 288 287 286 285 283 281 280 279 278 277 276 278 278 277 278 277 275 271 271 271 271 272
294 299 301 299 293 288 289 293 297 301 301 300 299 298 298 298 296 293 291 290 290 288 286 284 282 280 280 279 278 279 279 277 272 271 271 272 272 271 274 273 272 271 269
296 300 299 293 287 289 293 300 303 305 305 302 301 298 296 296 294 291 289 287 286 285 284 283 282 280 278 276 276 275 275 275 274 272 269 267 267 267 269 270 268 270 271
297 296 295 290 291 297 301 304 305 302 297 296 294 293 293 293 291 290 289 287 285 283 282 281 280 280 278 278 276 274 274 273 272 271 269 268 265 264 263 263 265 264 265
292 291 290 290 293 296 299 300 297 295 294 295 294 294 293 293 292 290 290 290 290 289 287 286 286 284 283 281 279 277 274 273 272 271 269 268 266 266 264 263 262 262 263
286 288 289 289 291 293 293 292 291 292 293 294 294 293 293 293 294 293 293 296 297 296 295 294 292 290 287 286 287 288 284 284 279 273 269 268 268 268 268 268 266 264 263
284 284 284 284 284 285 287 288 290 293 293 292 293 295 295 295 297 299 299 300 303 301 297 296 298 297 289 282 277 276 279 281 281 279 276 274 273 274 271 265 263 263 263
282 281 282 282 284 285 288 291 291 292 293 294 294 295 297 298 299 299 301 304 301 301 301 298 301 305 295 280 272 272 274 278 277 276 278 273 270 270 274 271 265 265 265
278 278 280 283 285 288 289 289 290 290 291 292 294 296 298 295 297 297 302 306 304 304 305 303 303 315 304 290 276 270 273 275 275 275 274 272 270 270 271 272 272 268 264
280 283 284 287 288 288 289 288 288 289 291 295 297 296 293 296 302 302 304 307 308 308 309 310 314 322 315 303 287 278 275 274 274 273 268 271 269 268 268 269 269 267 267
283 283 284 286 287 286 287 289 289 292 295 298 296 293 297 302 304 304 305 306 306 310 310 313 317 322 315 307 309 297 283 276 274 272 268 269 270 269 268 267 264 262 262
281 282 289 288 288 288 286 289 292 298 300 304 301 299 300 303 303 304 307 311 314 312 311 313 315 318 319 312 305 300 299 297 293 286 281 276 282 283 279 276 273 270 268